STARLINK-30508, 57979

Orbit data source: Space-Track

STARLINK-30508, 57979 is a payload satellite owned by SpaceX/Seattle (US) in LEO that was launched on Sat, 30 Sep 2023 UTC via an FALCON 9 launch vehicle from the Air Force Eastern Test Range (AFETR). Payload-class satellites include a variety of spacecraft equipped with specific instruments for various scientific and technological missions. These include communications satellites like Starlink; space stations such as the ISS; scientific satellites like the Hubble; Earth observation satellites from companies like Planet Labs, Umbra, and HawkEye 360; GPS; miniature CubeSats for education and research; and military/defense satellites.

Loading next visibility...
Identifier
57979, 2023-151R
Orbit
LEO
Country
Flag of USUS
Related business
Manufacturer
SpaceX/Seattle
Mission
Operational Commercial Communications
Bus & Motor
STARLINK V2M, Unknown motor
Mass
730 kg wet, ~700 kg dry
Launch date (UTC)
2023-09-30 (3 years ago)
Launch vehicle
FALCON 9
Launch site
Air Force Eastern Test Range (AFETR)
Object type
Payload
Rocket body
Debris
Shape & HBR
Box + 2 Pan, 17.7 m
Radar Cross Section
33.884 m², Large (>1 m²)

Expand to show TLE details & history
Last TLE update: 11 hours ago

TLE from 11 hours ago
0 STARLINK-30508
1 57979U 23151R   26130.03300609  .00004644  00000-0  17814-3 0  9994
2 57979  43.0047   4.3666 0000822 292.0355  68.0410 15.27583130144979
Epoch: 2026-05-10T00:47Z
TLE epoch observation values (Epoch: 2026-05-10T00:47:31.726Z)
Latitude
0.00004°
Longitude
124.64255°
Altitude
482.605 km
Speed
7.626 km/s
True Right ascension
00h 17m 27s
True Declination
0° 00' 00"
Sunlit
Object was in daylight at epoch
Visualization orbit readout
Latitude
Unknown
Longitude
Unknown
Altitude
Unknown
Speed
Unknown
Apparent Right ascension
Unknown
Apparent Declination
Unknown
Sunlit
N/A
Visualization observer readout
Local Sidereal Time
19:51:05
Azimuth
Unknown
Elevation
Unknown
Doppler factor
Unknown
Orbital elements
Apogee altitude
485.548 km
Perigee altitude
484.42 km
Semi-major axis
6,863.121 km
Eccentricity
0.00008
Inclination
43.0047°
RAAN
4.3666°
Arg. of periapsis
292.0355°
True anomaly
68.04974°
Mean anomaly
68.041°
Eccentric anomaly
68.04537°
Mean motion
3.81734 °/min
Orbital period
94.31 mins
BSTAR
0.00017814
Loading maneuver chart data...
Computing Atmospheric mass density...
Loading historical data...
Loading historical data...
Loading historical data...
Loading historical data...
Loading historical data...
Loading historical data...
Loading historical data...

Documentation

Showing up to 5 results
|